Location: Unspecified
(47.9110°N, 14.3980°E)
Time: 07:53:30
(UTC+00:00)

Cosmos 1633 Rocket - Pass Details

Date: 06 August 2020
Orbit: 606 x 624 km, 82.5° (Epoch: 26 September)

Event Time Altitude Azimuth Distance (km) Brightness Sun altitude
Exits shadow 20:23:53 18° 185° (S) 1,551 4.7 -16.0°
Maximum altitude 20:27:11 84° 99° (E) 635 3.0 -16.3°
Drops below altitude 10° 20:31:39 10° 11° (N) 2,007 6.2 -16.8°
Sets 20:33:53 0° 11° (N) 2,917 7.1 -17.1°
